Search your local weather  

 

Hazardous Weather Conditions

Heat Advisory issued May 20 at 4:29PM EDT until May 21 at 8:00PM EDT
Air Quality Alert issued May 20 at 5:00PM EDT
Dense Fog Advisory issued May 21 at 12:55AM EDT until May 21 at 9:00AM EDT
Heat Advisory issued May 21 at 12:55AM EDT until May 21 at 8:00PM EDT
Dense Fog Advisory issued May 21 at 3:50AM EDT until May 21 at 9:00AM EDT
Heat Advisory issued May 21 at 3:50AM EDT until May 21 at 8:00PM EDT

Current Conditions: NEW YORK, NEW YORK

Fog


62.0 F

Last Updated on May 21 2022, 4:51 am EDT
Humidity: 100%
Wind Speed: N 0.0 mph
Barometer 29.93 in
Dewpoint: 62.1 F
Visibility: 0.50 mi
Precip: --
Heat Index: NA
Wind Chill: NA
Current conditions at:

Teterboro, Teterboro Airport, NJ (KTEB)

Lat: 40.85889 Lon: -74.05667

Local Radar Image active severe weather and emergency alerts image image weather storm and storm spotter reports image weather observation monitoring service image
Local
Radar
Active
Alerts
Storm Reports Weather
Monitoring

5 Day Forecast for NEW YORK, NEW YORK (10001)

Saturday

Mostly Cloudy

High 93 °F
Saturday
Night
Partly Cloudy

Low 71 °F
Sunday

Isolated T-storm

High 91 °F
Sunday
Night
Isolated T-storm

Low 67 °F
Monday

Chance of Rain Showers
High 77 °F
Monday
Night
Chance of Rain
Low 60 °F
Tuesday

Chance of Rain Showers
High 71 °F
Tuesday
Night
Slight Chance of Rain
Low 57 °F
Wednesday

Chance of Rain Showers
High 71 °F

Sign-up For Email & Text Message Weather Alert Notification Services



Advertise Here

Observation History for NEW YORK, NEW YORK


Time Wind
(mph)
Vis
(mi)
Weather Precip (in) Temperature (F) Relative
Humidity
Wind
Chill
(F)
Heat
Index
(F)
Pressure
Air Dwpt altimeter
(in)
sea level
(mb)
4:51 am EDT N 0.0 0.50 Fog -- 62.0 62.1 100% NA NA 29.93 1013.6
3:51 am EDT N 0.0 0.50 Fog -- 63.0 62.1 97% NA NA 29.93 1013.5
2:51 am EDT N 4.6 0.50 Fog -- 63.0 62.1 97% 64 NA 29.93 1013.5
1:51 am EDT N 0.0 0.50 Fog -- 63.0 62.1 97% NA NA 29.92 1013.3
12:51 am EDT NE 3.5 0.50 Fog -- 63.0 62.1 97% NA NA 29.92 1013.2
11:51 pm EDT 3.5 0.75 Fog/Mist -- 62.0 61.0 96% NA NA 29.94 1013.7
10:51 pm EDT E 5.8 2.00 Fog/Mist -- 63.0 62.1 97% 63 NA 29.94 1013.6
9:51 pm EDT E 6.9 2.50 Fog/Mist -- 64.0 62.1 93% NA NA 29.93 1013.6
8:51 pm EDT NE 3.5 6.00 Fog/Mist -- 65.0 62.1 90% NA NA 29.93 1013.5
7:51 pm EDT E 3.5 6.00 Fog/Mist 00.02 64.0 62.1 93% NA NA 29.91 1012.8
5:51 pm EDT SE 6.9 4.00 Light Rain Fog/Mist 00.29 66.0 63.0 90% NA NA 29.93 1013.4
4:51 pm EDT SE 12.7 10.00 Overcast Trace 68.0 62.1 81% NA NA 29.94 1013.8
3:51 pm EDT SE 9.2 10.00 Mostly Cloudy -- 68.0 57.9 70% NA NA 29.93 1013.4
2:51 pm EDT SE 9.2 G 27.6 9.00 A Few Clouds -- 67.0 57.0 71% NA NA 29.93 1013.5
12:51 pm EDT E 10.4 10.00 Fair -- 67.0 57.0 71% NA NA 29.97 1014.8
11:51 am EDT SE 10.4 10.00 Light Rain Trace 70.0 57.9 66% NA NA 29.94 1013.9
10:51 am EDT SE 9.2 8.00 Fog/Mist -- 70.0 57.9 66% NA NA 29.95 1014.1
9:51 am EDT SE 4.6 3.00 Fog/Mist -- 64.0 60.1 87% NA NA 29.97 1014.7
8:51 am EDT N 0.0 4.00 Fog/Mist -- 59.0 57.0 93% NA NA 29.96 1014.5
7:51 am EDT N 0.0 0.50 Fog -- 56.0 54.0 93% NA NA 29.95 1014.0
6:51 am EDT N 0.0 0.50 Fog -- 54.0 53.1 97% NA NA 29.94 1013.6
5:51 am EDT N 3.5 1.50 Fog/Mist Shallow Fog -- 55.0 52.0 90% NA NA 29.90 1012.4

Regional Weather Observation

Caldwell, Essex County Airport, NJ (KCDW)

Fog/Mist
66.0 F

New York Downtown Manhattan, NY (KJRB)

Fog
61.0 F

Morristown Municipal, NJ (KMMU)

Fog/Mist
63.0 F

Newark, Newark International Airport, NJ (KEWR)

Fog/Mist
64.0 F

Linden Airport, NJ (KLDJ)

Fog
62.0 F

New York City, Central Park, NY (KNYC)

Fog
62.0 F

Advertise Here


Advertise Here